Weather Roundup
Issued by NWS Chicago, IL

Home | Current Version | Previous Version | Text Only | Print | Product List | Glossary On
Versions: 1 2 3 4 5 6 7 8 9 10 11 12 13 14 15 16 17 18 19 20 21 22 23 24 25 26 27 28 29 30 31 32 33 34 35 36 37 38 39 40 41 42 43 44 45 46 47 48 49 50
000
NZUS59 KLOT 020510
HRRLOT

CHICAGO AREA WEATHER ROUNDUP
NATIONAL WEATHER SERVICE CHICAGO/ROMEOVILLE IL
1200 AM CDT SAT AUG 02 2014

NOTE: "FAIR" INDICATES FEW OR NO CLOUDS BELOW 12,000 FEET WITH NO
SIGNIFICANT WEATHER AND/OR OBSTRUCTIONS TO VISIBILITY.

* THESE STATIONS ARE NOT UNDER NWS QUALITY CONTROL. THEY ALSO MAY NOT
  REPORT WEATHER SUCH AS PRECIPITATION OR FOG.

ILZ005-006-012>014-019>023-020600-
NORTHEAST ILLINOIS

CITY           SKY/WX    TMP DP  RH WIND       PRES   REMARKS
OHARE          CLOUDY    65  53  65 SE8       30.08F
MIDWAY         CLOUDY    71  55  56 E5        30.09F
AURORA         CLOUDY    64  57  78 SE3       30.07F
LANSING*       MOCLDY    61  60  94 CALM      30.11F
JOLIET*        CLOUDY    62  57  84 SE5       30.11F
WAUKEGAN       MOCLDY    60  55  83 CALM      30.08S
DUPAGE AIRPORT CLOUDY    64  57  78 S9        30.06F
WHEELING       CLOUDY    67  56  67 S5        30.09F
KANKAKEE*      CLOUDY    62  60  95 CALM      30.12F FOG
MORRIS*        CLOUDY    63  61  94 SE3       30.09F
LEWIS AIRPORT* CLOUDY    63  56  80 SE7       30.09F
NORTHERLY IS     N/A     70  53  54 SW3         N/A
$$

WIZ051-052-058>065-066-070>072-020600-
SOUTHEAST WISCONSIN

CITY           SKY/WX    TMP DP  RH WIND       PRES   REMARKS
MILWAUKEE      PTCLDY    62  55  77 NW3       30.08F
KENOSHA*       MOCLDY    58  56  93 E5        30.08S
RACINE*        MOCLDY    60  56  86 CALM      30.10S
BURLINGTON     PTCLDY    56  55  96 CALM      30.09R
WAUKESHA       PTCLDY    57  54  88 CALM      30.11S
WEST BEND      CLEAR     59  54  82 CALM      30.11R
$$

INZ001>003-010>013-019-020-020600-
NORTHWEST INDIANA

CITY           SKY/WX    TMP DP  RH WIND       PRES   REMARKS
GARY*          MOCLDY    65  61  87 S3        30.11F
MICHIGAN CITY* NOT AVBL
RENSSELAER*    NOT AVBL
VALPARAISO     MOCLDY    59  57  93 CALM      30.12F
$$

LMZ740>746-020600-
SOUTHERN LAKE MICHIGAN

STATION/POSITION TIME  SKY/WX   TEMP WIND        PRES    VSBY
                                AIR  DIR/SP/G
                 (UTC)          (F)  (DEG/KT/KT) (MB)    (MI)
HARRISON CRIB    0500            70  240/  6/  7   N/A
BURNHAM HARBOR   0500            70  190/  3/  5   N/A
CALUMET HARBOR   0400            69  160/  2/  2 1018.2F
BURNS HARBOR     0500            68  190/  6/  6   N/A
MICHIGAN CITY    0500            67  180/  4/  5   N/A
$$

ABBREVIATIONS USED IN REMARKS
   TC - TEMPERATURE IN CELSIUS
  WCI - WIND CHILL INDEX
   HX - HEAT INDEX
  VSB - VISIBILITY
$$



USA.gov is the U.S. government's official web portal to all federal, state and local government web resources and services.